Regional Weather Roundup
Issued by NWS Green Bay, WI

Home | Current Version | Previous Version | Text Only | Print | Product List | Glossary On
Versions: 1 2 3 4 5 6 7 8 9 10 11 12 13 14 15 16 17 18 19 20 21 22 23 24 25 26 27 28 29 30 31 32 33 34 35 36 37 38 39 40 41 42 43 44 45 46 47 48 49 50
000
ASUS43 KGRB 230259
RWRGRB

NORTH-CENTRAL AND NORTHEAST WISCONSIN REGIONAL WEATHER ROUNDUP
NATIONAL WEATHER SERVICE GREEN BAY WI
1000 PM CDT TUE JUL 22 2014

WIZ005-009-010>012-018-019-230400-
NORTH CENTRAL WISCONSIN

CITY           SKY/WX    TMP DP  RH WIND       PRES   REMARKS
IRONWOOD       NOT AVBL
MANITOWISH WTR NOT AVBL
ARBOR VITAE    NOT AVBL
EAGLE RIVER    NOT AVBL
LAND O LAKES   NOT AVBL
RHINELANDER    PTCLDY    61  57  87 N3        30.14R
PHILLIPS       NOT AVBL
ANTIGO         NOT AVBL
TOMAHAWK       NOT AVBL
MERRILL        NOT AVBL
$$

WIZ013-073-230400-
NORTHEAST WISCONSIN

CITY           SKY/WX    TMP DP  RH WIND       PRES   REMARKS
IRON MOUNTAIN  CLEAR     61  55  81 NW7       30.08R
MARINETTE      MOCLDY    66  55  68 N14G20    30.03R
$$

WIZ017-030-035>037-045-230400-
CENTRAL WISCONSIN

CITY           SKY/WX    TMP DP  RH WIND       PRES   REMARKS
MEDFORD        NOT AVBL
WAUSAU         CLEAR     67  59  75 N9        30.09R
MOSINEE        CLEAR     66  61  82 N9        30.11R
MARSHFIELD     CLEAR     69  58  67 N13G20    30.10R
WISC RAPIDS    CLEAR     71  59  65 N15G21    30.09R
STEVENS POINT  NOT AVBL
WAUPACA        NOT AVBL
SHAWANO        NOT AVBL
CLINTONVILLE   NOT AVBL
$$

WIZ038-039-048-051-230400-
FOX VALLEY

CITY           SKY/WX    TMP DP  RH WIND       PRES   REMARKS
NWS GREEN BAY  CLEAR     70  60  70 N16G22    30.03R
APPLETON       PTCLDY    72  59  64 N20G29    30.04R
OSHKOSH        CLEAR     75  63  66 N24G30    30.02R
FOND DU LAC    PTCLDY    76  62  62 N13       30.02R
$$

WIZ022-050-052-230400-
EAST CENTRAL WISCONSIN

CITY           SKY/WX    TMP DP  RH WIND       PRES   REMARKS
STURGEON BAY   CLOUDY    66  57  72 N21       30.05R
MANITOWOC      NOT AVBL
SHEBOYGAN      MOCLDY    77  63  61 N16G30    29.99R
$$

LMZ563-521-522-541>543-230400-
LAKESHORE

STATION/POSITION TIME  TEMP    WIND        PRES    VSBY  WAVE
                       AIR SEA DIR/SP/G                  HT/PER
                 (UTC) (F)     (DEG/KT/KT) (MB)    (MI)  (FT/S)
SHEBOYGAN LKSHOR 0200           10/ 15/ 20 1014.3R
KEWAUNEE LKSHORE 0200   73     340/ 11/ 20 1016.5R
NORTHPORT PIER   0200   67     340/ 22/ 28 1016.3R
N MID LAKE BUOY  0200   62 57  340/ 23/ 29 1014.1R         5/ 6
CHAMBERS ISLAND  0200   66     320/ 16/ 19 1015.9R
MENOMINEE LKSHOR 0200   64     340/ 19/ 23 1017.3R
$$



USA.gov is the U.S. government's official web portal to all federal, state and local government web resources and services.